« Back
NWS Peachtree City, Ga » Text Product » GA Regional Weather Roundup


Printer-friendly Version
Current Version              Previous Versions:   1  2  3  4  5  6  7  8  9  

Regional Weather Roundup

808
ASUS42 KFFC 311603
RWRGA
WEATHER ROUNDUP FOR GEORGIA
NATIONAL WEATHER SERVICE PEACHTREE CITY GA
1200 PM EDT THU JUL 31 2014

NOTE: "FAIR" INDICATES FEW OR NO CLOUDS BELOW 12,000 FEET WITH NO
SIGNIFICANT WEATHER AND/OR OBSTRUCTIONS TO VISIBILITY.

* = USE WITH CAUTION. THE STATIONS MARKED WITH AN ASTERISK MAY NOT
REPORT WEATHER SUCH AS PRECIPITATION, FOG, OR THUNDER AND ARE NOT
QUALITY CONTROLLED BY NWS.

THE REMARK "TC" DENOTES TEMPERATURE READING IN DEGREES CELSIUS.

GAZ001>058-311700-
NORTH GEORGIA

CITY           SKY/WX    TMP DP  RH WIND       PRES   REMARKS
ATLANTA        CLOUDY    77  69  76 E8        30.08S
ATHENS         CLOUDY    78  69  73 E9        30.09F
CHAMBLEE       CLOUDY    77  66  68 SE6       30.09S
PEACHTREE CITY CLOUDY    79  69  71 VRB3      30.08S
ROME           CLOUDY    74  62  66 N5        30.10R
WEST ATLANTA   CLOUDY    77  67  71 N3        30.08S
GAINESVILLE    CLOUDY    76  66  71 NE9       30.13S
CARTERSVILLE   CLOUDY    76  63  64 CALM      30.10S


CITY           SKY/WX    TMP DP  RH WIND       PRES   REMARKS
DALTON*        CLOUDY    68  64  88 CALM      30.12R
LAWRENCEVILLE* CLOUDY    75  63  64 E8        30.10S
MARIETTA       CLOUDY    76  67  75 N5        30.10R
KENNESAW*      PTSUNNY   73  64  73 NE5       30.12R
$$

GAZ059>098-102>109-311700-
CENTRAL GEORGIA

CITY           SKY/WX    TMP DP  RH WIND       PRES   REMARKS
AUGUSTA-BUSH   CLOUDY    82  71  69 E9        30.05R
AUGUSTA-DANIEL CLOUDY    82  70  66 E8        30.07R
COLUMBUS       PTSUNNY   83  63  50 CALM      30.04S
MACON          CLOUDY    84  71  65 NE7       30.04S
ROBINS AFB     CLOUDY    83  73  72 N7        30.03F


CITY           SKY/WX    TMP DP  RH WIND       PRES   REMARKS
LAGRANGE*      PTSUNNY   84  71  66 CALM      30.07S
SYLVANIA*      CLOUDY    76  74  93 NE5       30.05S
MILLEDGEVILLE* CLOUDY    73  64  73 E5        30.06S
$$

GAZ099>101-110>166-311700-
SOUTH GEORGIA

CITY           SKY/WX    TMP DP  RH WIND       PRES   REMARKS
SAVANNAH       CLOUDY    87  71  58 SE12      30.00F HX  93
VALDOSTA       MOSUNNY   91  59  33 SW3       30.01S HX  90
ALMA           MOSUNNY   89  66  46 CALM      30.01S HX  91
ST SIMONS      SUNNY     88  71  57 CALM      30.00F HX  94
FT STEWART     PTSUNNY   86  73  64 VRB3      29.99F HX  93
ALBANY         PTSUNNY   86  62  44 W7        30.04S
HUNTER AFB     PTSUNNY   87  74  65 SE10      29.98F HX  94
BRUNSWICK      SUNNY     90  68  48 SW6       30.01S HX  93


CITY           SKY/WX    TMP DP  RH WIND       PRES   REMARKS
BAINBRIDGE*    SUNNY     88  63  42 CALM      30.03S
MOULTRIE*      PTSUNNY   86  61  42 NW5       30.03S
VIDALIA*         N/A     86  73  66 E6        30.03S HX  93
WAYCROSS*      MOSUNNY   92  66  41 SW3       30.00S HX  95
DOUGLAS*       PTSUNNY   90  61  37 CALM      30.02S
$$



USA.gov is the U.S. government's official web portal to all federal, state and local government web resources and services.